STARLINK-2373, 47796

Orbit data source: Space-Track

STARLINK-2373, 47796 is a payload satellite owned by SpaceX/Seattle (US) in LEO that was launched on Thu, 11 Mar 2021 UTC via an FALCON 9 launch vehicle from the Air Force Eastern Test Range (AFETR). Payload-class satellites include a variety of spacecraft equipped with specific instruments for various scientific and technological missions. These include communications satellites like Starlink; space stations such as the ISS; scientific satellites like the Hubble; Earth observation satellites from companies like Planet Labs, Umbra, and HawkEye 360; GPS; miniature CubeSats for education and research; and military/defense satellites.

Loading next visibility...
Identifier
47796, 2021-018K
Orbit
LEO
Country
Flag of USUS
Related business
Manufacturer
SpaceX/Seattle
Mission
Operational Commercial Communications
Bus & Motor
STARLINK, Unknown motor
Mass
260 kg wet, ~248 kg dry
Launch date (UTC)
2021-03-11 (5 years ago)
Launch vehicle
FALCON 9
Launch site
Air Force Eastern Test Range (AFETR)
Object type
Payload
Rocket body
Debris
Shape & HBR
Box + 1 Pan, 10.1 m
Radar Cross Section
13.562 m², Large (>1 m²)

Expand to show TLE details & history
Last TLE update: 10 hours ago

TLE from 10 hours ago
0 STARLINK-2373
1 47796U 21018K   26035.35226338  .00004117  00000-0  29506-3 0  9991
2 47796  53.0559  21.2769 0001570  93.8303 266.2865 15.06405583271853
Epoch: 2026-02-04T08:27Z
TLE epoch observation values (Epoch: 2026-02-04T08:27:15.556Z)
Latitude
-0.00004°
Longitude
119.94198°
Altitude
548.144 km
Speed
7.589 km/s
True Right ascension
01h 25m 06s
True Declination
0° 00' 00"
Sunlit
Object was in daylight at epoch
Visualization orbit readout
Latitude
Unknown
Longitude
Unknown
Altitude
Unknown
Speed
Unknown
Apparent Right ascension
Unknown
Apparent Declination
Unknown
Sunlit
N/A
Visualization observer readout
Local Sidereal Time
19:59:32
Azimuth
Unknown
Elevation
Unknown
Doppler factor
Unknown
Orbital elements
Apogee altitude
548.552 km
Perigee altitude
546.378 km
Semi-major axis
6,925.602 km
Eccentricity
0.00016
Inclination
53.0559°
RAAN
21.2769°
Arg. of periapsis
93.8303°
True anomaly
266.26855°
Mean anomaly
266.2865°
Eccentric anomaly
266.27752°
Mean motion
3.7658 °/min
Orbital period
95.6 mins
BSTAR
0.00029506
Loading maneuver chart data...
Computing Atmospheric mass density...
Loading historical data...
Loading historical data...
Loading historical data...
Loading historical data...
Loading historical data...
Loading historical data...
Loading historical data...

Documentation

Showing up to 5 results
|